EW5246 Weather Reports


time (UTC)temp
C
wind
direction
speed
KPH
gust
KPH
rain 1hr
cm
rain 24hr
cm
rain mn
cm
humidity
%
barometer
mb
20260504010100 11 202 1.6 11.3 0.00 0.00 0.00 50 1012.3
20260504004555 12 193 3.2 11.3 0.00 0.00 0.00 48 1012.2
20260504003155 12 217 4.8 14.5 0.00 0.00 0.00 46 1012.2
20260504001601 13 185 6.4 12.9 0.00 0.00 0.00 44 1012.2
20260504000054 13 163 6.4 17.7 0.00 0.00 0.00 44 1012.2
20260503234553 13 189 1.6 12.9 0.00 0.00 0.00 45 1012.3
20260503233052 13 239 6.4 17.7 0.00 0.00 0.00 44 1012.4
20260503231550 13 245 6.4 19.3 0.00 0.00 0.00 43 1012.4
20260503230050 13 210 4.8 17.7 0.00 0.00 0.00 44 1012.4
20260503224549 13 209 9.7 22.5 0.00 0.00 0.00 43 1012.5
20260503223048 13 243 8.0 24.1 0.00 0.00 0.00 42 1012.7
20260503221547 13 160 9.7 25.7 0.00 0.00 0.00 43 1012.7
20260503220051 13 219 9.7 19.3 0.00 0.00 0.00 43 1012.7
20260503214546 14 236 8.0 20.9 0.00 0.00 0.00 42 1012.7
20260503213052 14 231 6.4 17.7 0.00 0.00 0.00 42 1012.6
20260503211545 14 265 4.8 20.9 0.00 0.00 0.00 41 1012.5
20260503210100 14 214 4.8 20.9 0.00 0.00 0.00 41 1012.6
20260503204547 15 212 6.4 24.1 0.00 0.00 0.00 41 1012.6
20260503203051 14 203 6.4 19.3 0.00 0.00 0.00 43 1012.7
20260503201545 14 186 8.0 17.7 0.00 0.00 0.00 41 1012.9
20260503200047 15 166 8.0 20.9 0.00 0.00 0.00 40 1013.1
20260503194543 14 65 4.8 24.1 0.00 0.00 0.00 43 1013.4
20260503193046 15 235 9.7 29.0 0.00 0.00 0.00 40 1013.7
20260503191538 14 238 11.3 19.3 0.00 0.00 0.00 40 1013.9
20260503190007 14 147 11.3 27.4 0.00 0.00 0.00 41 1014.0
20260503184505 14 266 9.7 29.0 0.00 0.00 0.00 40 1014.1
20260503183002 14 246 9.7 29.0 0.00 0.00 0.00 40 1014.3
20260503181504 14 261 6.4 29.0 0.00 0.00 0.00 42 1014.4
20260503180100 14 266 9.7 25.7 0.00 0.00 0.00 42 1014.6
20260503174558 13 226 9.7 20.9 0.00 0.00 0.00 42 1014.7
20260503173101 13 223 8.0 29.0 0.00 0.00 0.00 42 1014.8
20260503171554 13 288 6.4 20.9 0.00 0.00 0.00 42 1015.0
20260503081630 1 223 0.0 0.0 0.00 0.38 0.00 87 1016.0
20260503071520 1 215 0.0 0.0 0.00 0.38 0.00 86 1016.0
20260503054513 1 214 0.0 0.0 0.00 0.43 0.00 83 1016.3
20260503053006 2 221 0.0 0.0 0.00 0.43 0.00 83 1016.4
20260503051504 2 218 0.0 0.0 0.00 0.43 0.00 82 1016.4
20260503050010 2 219 0.0 0.0 0.00 0.46 0.00 81 1016.5
20260503044613 2 213 0.0 0.0 0.00 0.46 0.00 80 1016.5
20260503043102 2 212 0.0 0.0 0.00 0.46 0.00 76 1016.5
20260503041554 3 218 0.0 0.0 0.00 0.46 0.00 74 1016.5
20260503040052 3 219 0.0 0.0 0.00 0.46 0.00 73 1016.6
20260503034554 3 214 0.0 0.0 0.00 0.46 0.46 71 1016.7
20260503033109 3 209 0.0 0.0 0.00 0.46 0.46 69 1016.7
20260503031557 3 211 0.0 0.0 0.00 0.46 0.46 69 1016.8
20260503030110 3 218 0.0 0.0 0.00 0.46 0.46 72 1016.8
20260503024623 3 218 0.0 0.0 0.00 0.46 0.46 70 1016.9
20260503023058 3 218 0.0 0.0 0.00 0.46 0.46 70 1017.1
20260503021600 3 269 0.0 0.0 0.00 0.46 0.46 70 1017.1
20260503020054 3 269 0.0 0.0 0.00 0.46 0.46 68 1017.0
20260503014554 3 269 0.0 0.0 0.00 0.46 0.46 65 1017.0
20260503013053 4 269 0.0 0.0 0.00 0.46 0.46 65 1017.0
20260503011559 4 267 0.0 0.0 0.00 0.46 0.46 64 1017.0